Dewpoint
57 57 56 56 56 57 57 57 57 56 56 56 56 56 57 57 56 56 56 56 56 57 57 57 56 57 57 56 56 57 57 55 52 49 47 44 58 68 66 67 69 70 72 58 50 40 34 37 44 49 53 55 56 55 56 56 59 61 62 62 58 56 54 56 58 58 59 58 58 62 61 61 62 62 61 62 59 59 55 55 52 51 52 54 56 58 58 58
57 56 57 57 57 57 57 56 56 57 57 57 57 57 57 57 57 57 56 56 56 56 57 57 57 57 56 56 57 57 56 54 50 44 38 58 66 66 63 64 69 70 70 54 44 35 32 31 41 49 53 52 54 54 54 58 57 61 59 61 56 57 58 61 63 62 61 57 59 61 63 62 61 61 59 60 59 57 54 52 53 54 55 56 57 57 58 58
56 57 57 57 57 57 56 56 56 56 57 57 57 57 57 57 57 57 57 57 56 56 56 56 56 56 57 57 57 57 55 53 51 42 52 71 64 65 65 66 68 69 60 50 41 34 29 26 28 46 51 51 51 52 53 51 53 61 57 57 59 62 60 64 65 62 60 60 60 59 62 63 62 62 61 61 57 55 53 51 54 55 54 55 56 57 57 58
56 56 56 56 56 56 56 56 56 57 57 56 56 57 57 57 56 56 57 56 56 56 56 56 56 56 57 57 57 56 54 50 43 45 49 66 67 64 65 66 67 65 56 51 38 30 30 28 25 41 50 50 51 52 49 46 47 53 52 53 60 62 60 63 66 65 60 59 59 60 60 64 62 63 60 59 56 57 56 54 53 53 54 55 56 57 56 57
56 56 56 56 56 56 56 57 57 57 57 56 56 56 56 56 56 57 57 57 56 56 56 56 56 57 56 56 57 55 52 46 36 45 58 66 66 69 68 65 66 53 47 34 29 29 30 26 23 37 48 49 51 49 46 44 47 46 49 54 61 62 60 64 64 60 61 63 62 61 58 62 63 62 61 60 57 56 61 52 52 53 55 55 55 56 56 56
56 56 56 56 56 56 56 56 57 57 57 57 57 56 56 56 56 56 56 56 56 56 56 56 56 57 57 57 55 54 46 26 40 45 67 67 67 69 67 65 67 60 48 22 19 23 25 24 24 37 45 48 50 47 41 41 45 43 49 50 52 59 58 64 64 63 61 61 62 60 59 63 62 63 65 61 60 61 62 53 52 53 55 55 56 55 56 56
56 56 56 56 56 56 56 56 56 56 56 57 57 56 56 56 56 56 56 56 56 56 56 56 57 57 57 58 55 53 44 37 44 54 68 66 69 65 66 66 68 49 32 20 18 22 23 22 25 37 44 45 47 46 40 40 42 43 44 46 52 56 60 62 63 65 63 64 63 62 61 62 62 60 65 63 64 64 58 52 53 54 55 55 54 55 56 56
56 56 56 56 56 56 56 56 56 56 56 56 56 56 56 56 56 55 56 56 56 56 56 56 57 57 57 54 52 51 35 39 46 52 68 69 63 57 62 46 39 32 20 16 12 19 24 23 26 39 43 42 42 42 38 41 42 42 44 49 53 58 60 61 62 64 66 66 66 64 62 61 62 65 63 62 65 57 56 53 53 54 54 54 54 55 56 57
56 55 55 56 56 56 56 56 56 56 56 56 56 56 56 56 55 55 56 55 56 56 56 56 57 57 58 54 47 34 32 37 44 44 50 49 44 43 40 38 34 23 14 13 13 14 21 22 25 35 39 41 44 40 39 39 38 44 46 48 56 59 62 61 66 66 67 68 67 65 63 62 62 67 63 66 66 59 56 55 54 54 53 54 54 55 57 57
55 55 55 55 55 56 56 56 56 56 56 56 56 55 55 55 55 55 56 56 56 56 56 56 57 57 56 54 47 33 33 38 42 40 38 44 42 40 39 32 21 20 16 10 8 11 17 20 22 35 42 42 41 38 35 37 44 49 49 51 55 58 62 62 63 64 65 67 67 65 61 63 65 64 57 64 60 56 55 54 55 54 53 54 54 55 56 56
55 55 55 55 55 55 55 56 56 56 56 56 55 55 55 55 55 55 55 55 56 56 56 57 57 57 54 53 45 19 33 38 40 40 38 42 39 32 28 30 26 23 17 11 4 3 14 22 23 35 40 39 38 36 34 40 48 45 50 50 55 60 61 62 63 63 63 65 67 66 64 63 65 63 58 65 60 56 55 54 55 55 55 54 55 56 57 56
55 55 55 55 54 54 55 55 56 56 56 55 55 55 55 55 55 55 55 55 56 56 57 57 58 55 54 49 21 25 34 36 34 40 38 35 36 33 31 28 28 26 20 13 4 4 12 19 23 31 36 35 32 34 30 43 45 51 47 44 58 60 61 60 62 63 62 64 66 66 64 62 63 61 62 64 59 58 57 56 56 55 54 55 56 56 57 58
55 55 55 55 54 54 55 55 56 56 55 55 55 54 55 55 55 55 55 55 56 56 57 57 58 56 52 27 25 29 33 35 36 38 38 35 32 30 30 29 27 27 24 20 6 5 12 19 29 33 38 35 31 26 52 48 44 49 47 44 51 57 56 62 63 63 62 65 65 65 55 58 61 62 64 63 63 60 59 59 57 57 54 55 55 56 56 57
56 56 55 54 54 54 55 55 55 55 55 55 55 54 55 55 56 56 56 56 56 57 57 58 57 56 54 24 28 29 33 31 32 34 37 35 32 30 30 27 25 28 27 25 17 12 12 17 32 34 32 30 28 44 38 41 47 44 44 48 44 46 53 61 61 61 61 66 64 66 55 57 61 62 65 64 65 60 58 58 56 56 54 54 55 55 56 57
56 56 55 54 54 55 55 55 55 55 55 55 54 54 55 55 57 57 56 56 57 57 58 59 57 54 48 28 29 35 64 41 33 34 35 32 32 28 29 21 18 20 21 22 13 14 17 24 36 33 28 31 30 30 36 36 46 44 47 40 40 41 53 60 62 60 60 63 65 64 56 57 60 63 64 65 67 65 62 61 57 56 54 54 54 54 54 56
56 55 55 54 54 54 54 54 55 55 55 54 54 53 55 57 58 56 56 56 59 58 56 56 58 51 40 27 34 53 36 37 25 30 31 33 30 27 25 19 14 14 12 11 14 20 26 33 32 32 27 27 25 27 29 33 38 42 42 40 48 49 51 58 60 62 62 62 62 62 55 58 59 63 64 66 66 63 63 62 65 56 54 54 54 54 55 54
56 56 56 55 55 54 54 54 54 54 54 54 53 54 56 58 57 57 57 57 57 55 55 53 42 44 24 26 32 34 25 20 26 29 29 32 30 24 23 17 12 8 10 6 18 28 32 30 31 28 23 23 24 24 27 31 32 37 40 39 42 42 48 49 54 63 62 60 58 60 58 57 59 62 64 66 66 65 63 64 64 61 55 54 54 53 54 54
56 56 55 56 55 55 54 54 54 54 54 53 53 53 55 59 60 59 58 58 57 55 53 53 51 38 23 28 23 16 22 24 25 25 28 26 26 25 24 22 15 8 8 10 23 27 26 26 24 18 21 18 23 29 29 27 28 24 34 36 39 45 44 46 54 58 58 60 57 56 55 58 60 62 62 64 65 64 63 62 65 64 55 54 52 53 54 53
56 55 55 55 55 54 54 54 53 53 53 53 54 56 57 58 58 56 52 54 50 52 39 38 37 23 17 20 20 23 22 21 24 22 22 26 24 24 23 22 16 12 11 18 19 24 23 21 22 18 21 22 17 25 25 25 35 34 35 35 35 34 39 46 50 57 55 55 55 55 54 57 59 60 61 62 64 63 64 64 65 62 62 54 52 50 52 53
55 55 55 55 55 54 54 54 53 53 53 52 54 59 56 55 48 43 50 48 35 24 21 22 23 25 23 23 21 21 24 24 20 18 22 21 20 23 22 19 17 17 17 21 17 20 26 17 21 16 14 16 21 28 30 33 35 35 35 33 32 32 37 50 56 53 59 54 53 54 54 56 58 59 61 61 62 63 63 65 64 64 63 54 51 49 51 53
55 55 55 55 54 54 54 53 53 52 52 50 48 46 27 25 25 23 27 23 23 23 24 22 21 20 19 21 23 24 23 18 20 19 21 22 24 21 15 17 13 17 17 24 24 22 20 20 21 20 20 27 27 31 33 31 31 29 30 28 27 28 29 48 48 56 57 59 53 56 53 56 57 59 60 62 63 62 62 63 64 65 63 58 57 52 52 53
55 55 55 54 54 54 53 53 52 52 51 52 50 39 25 26 26 30 32 24 22 23 24 22 25 22 24 24 24 26 25 19 18 19 22 25 23 21 12 11 13 14 17 17 23 18 15 14 17 20 24 26 26 23 21 21 22 23 22 25 24 26 45 46 54 52 56 52 52 54 52 53 58 60 60 61 61 61 62 65 63 62 60 61 59 56 54 51
54 55 55 54 54 53 53 53 52 51 52 53 49 27 25 27 27 35 35 31 23 22 23 22 21 22 21 24 26 27 25 18 18 19 19 23 19 15 10 8 5 11 10 10 14 16 12 14 11 19 23 22 19 19 18 19 20 18 17 18 17 26 31 31 49 49 54 49 43 46 47 52 57 60 60 61 61 63 66 66 64 62 61 60 58 57 54 51
54 54 54 54 54 53 53 52 51 52 48 38 31 27 29 29 29 28 30 31 20 18 19 19 18 19 18 20 21 24 19 14 19 17 24 24 20 13 16 13 6 4 5 8 8 8 9 8 16 17 16 15 13 14 18 17 13 14 14 13 17 18 29 28 43 47 47 45 49 50 52 50 53 57 58 60 61 62 64 65 66 64 63 62 62 60 57 52
54 54 54 54 53 53 52 51 43 38 36 31 29 30 31 36 37 32 31 31 18 16 18 18 19 19 19 22 23 23 19 18 19 19 23 24 19 18 15 13 19 14 13 11 9 2 1 5 9 9 8 8 11 10 12 14 12 10 12 14 15 15 22 17 35 39 36 36 51 52 42 43 56 57 57 59 60 61 62 62 63 62 63 63 63 59 56 56
54 54 54 54 53 52 51 43 31 28 25 26 30 31 33 32 35 37 34 30 17 12 16 17 14 16 18 19 22 20 22 18 19 20 23 23 28 23 10 15 10 11 12 7 9 12 14 14 12 6 5 7 7 6 7 9 8 8 9 11 13 13 13 20 31 40 32 34 54 53 39 37 46 53 55 58 58 60 62 62 62 63 63 63 63 61 56 53
54 54 54 54 53 52 48 19 37 28 25 25 29 32 30 29 51 39 34 27 15 7 9 10 11 13 16 17 18 19 17 18 22 23 24 25 25 24 22 17 11 13 13 18 23 9 12 16 14 9 10 6 7 7 6 5 3 2 6 12 18 17 17 21 23 33 33 32 41 41 39 39 42 50 55 57 57 58 59 60 61 62 63 64 63 60 57 53
54 54 53 53 52 52 49 49 37 25 22 30 31 28 32 43 47 41 31 25 8 8 8 9 10 14 13 14 16 15 18 21 21 22 23 25 24 23 20 17 16 16 13 18 16 17 17 17 17 14 12 10 7 8 15 13 9 7 6 17 20 16 14 13 17 28 30 35 34 37 39 42 41 44 55 57 54 57 59 58 59 60 62 63 64 60 57 53
54 54 53 53 52 52 51 46 44 29 30 30 27 30 29 48 42 36 29 27 9 7 9 9 12 11 11 13 13 15 14 16 16 19 22 24 22 23 22 19 18 17 17 16 15 17 18 17 17 15 14 10 15 16 15 12 10 9 15 9 13 17 16 18 27 30 34 34 35 35 39 42 39 48 52 55 54 56 57 58 59 61 62 62 63 62 56 54
54 53 53 52 51 52 50 48 42 28 30 31 32 36 33 36 38 29 22 19 11 5 8 8 9 9 11 11 11 13 15 15 17 18 20 22 23 22 19 20 18 18 17 16 12 12 11 22 22 15 16 18 19 16 15 11 12 10 10 13 19 16 17 21 26 32 31 32 35 32 32 36 37 40 55 56 55 54 53 55 59 61 62 62 62 61 59 56
53 52 52 52 49 45 44 30 19 20 32 39 36 32 34 37 28 25 25 8 8 8 7 7 7 8 9 10 9 10 13 13 16 16 18 19 19 21 21 20 23 18 17 17 16 17 16 17 16 16 18 13 17 12 16 16 14 12 15 20 20 23 26 29 29 36 29 29 31 29 29 35 35 44 53 53 56 51 58 58 56 59 61 62 64 61 60 58
51 51 52 52 50 50 36 31 41 42 39 40 35 30 31 28 24 20 17 13 10 6 4 6 6 6 8 5 9 6 12 15 14 15 12 14 17 18 17 16 18 15 17 18 15 18 14 16 18 19 24 16 19 18 16 19 16 17 20 23 21 25 30 32 30 31 29 28 29 27 34 35 33 48 47 52 51 55 58 57 58 57 58 62 63 61 58 56
50 51 51 51 52 48 41 43 46 49 44 35 33 29 27 27 30 20 13 9 6 8 4 7 7 8 8 7 9 10 5 10 8 14 10 12 10 14 15 14 14 17 17 12 9 9 12 18 19 19 20 24 20 15 17 16 19 24 23 23 23 21 26 26 26 27 26 26 26 29 39 38 41 53 55 52 56 59 59 61 58 57 57 61 62 62 59 58
50 51 53 54 50 48 46 54 47 47 36 35 33 27 25 24 23 37 12 3 7 8 6 5 7 8 8 6 10 7 10 9 10 11 14 18 14 17 18 16 16 16 15 13 11 11 11 15 15 17 19 23 20 20 21 22 17 25 26 22 22 22 17 23 23 21 23 25 29 39 33 35 34 53 54 52 55 57 60 59 61 61 60 61 60 60 60 59
50 52 53 56 51 48 47 46 50 46 39 33 26 23 24 24 21 18 14 6 7 6 4 8 7 8 8 6 11 8 10 13 13 11 13 13 13 15 14 16 18 14 17 16 14 14 8 11 22 22 22 22 20 23 23 22 20 24 26 26 25 23 23 17 19 20 21 22 35 35 32 42 49 54 54 54 52 57 57 59 60 62 57 58 56 57 58 58
50 55 54 53 48 47 43 43 45 42 36 27 22 23 20 22 19 13 10 12 10 7 8 7 7 6 8 10 13 10 9 12 9 10 10 11 12 15 15 15 15 13 16 17 17 12 14 13 21 23 24 22 22 25 25 27 20 36 33 31 24 22 19 23 24 22 24 25 25 41 37 44 48 50 48 53 54 54 56 58 59 60 64 59 57 57 56 56
42 47 49 43 41 43 44 44 41 40 33 27 23 20 20 18 18 13 25 10 13 9 9 6 8 5 10 7 13 12 10 5 5 8 17 13 12 14 15 17 17 17 17 16 17 16 13 15 18 17 16 23 25 24 25 24 27 25 24 28 28 25 24 29 25 30 28 23 25 24 26 38 40 41 49 52 55 57 57 60 60 62 63 63 61 58 58 58
49 43 41 40 44 45 48 48 42 36 28 23 23 35 21 20 20 17 17 15 12 8 6 8 10 8 9 9 7 11 11 7 11 5 15 6 14 19 15 16 17 16 16 16 17 18 16 13 14 15 17 16 21 24 21 22 26 22 22 32 28 25 27 31 24 22 23 29 28 24 23 27 31 41 49 51 55 54 57 60 62 61 61 61 64 63 61 61
51 41 35 38 40 42 47 51 40 36 27 23 18 22 16 19 20 18 19 13 13 13 7 6 6 10 7 7 9 10 10 2 11 9 8 10 10 17 15 17 16 15 16 15 15 17 16 15 16 18 16 15 16 18 19 19 25 27 27 24 27 29 32 35 37 35 26 23 26 26 25 25 48 51 54 54 56 57 54 57 60 62 63 61 63 64 64 60
50 38 31 38 40 44 52 44 31 33 27 20 18 15 15 14 18 22 20 17 13 9 9 6 6 7 7 7 9 8 8 6 2 8 2 12 9 17 15 13 14 16 15 16 13 15 16 23 13 14 13 14 16 17 20 22 29 30 31 34 28 26 28 30 33 29 28 26 25 26 26 33 52 57 57 56 57 57 58 58 62 62 63 63 63 65 64 65
37 29 32 39 36 44 41 33 29 28 25 20 17 14 14 18 21 21 19 16 14 14 13 8 4 5 10 9 6 6 10 9 9 5 7 8 2 13 14 15 13 14 15 13 17 17 20 17 17 16 12 13 16 23 23 22 25 27 28 39 43 34 29 29 29 24 24 26 27 22 25 43 52 55 57 56 55 57 57 59 61 62 62 63 65 67 67 67
39 27 30 38 38 37 32 24 21 23 18 16 13 12 20 42 22 19 18 18 14 14 12 9 9 7 9 9 9 9 10 9 9 8 7 -0 8 9 17 16 14 14 11 15 13 15 22 19 15 12 13 12 15 19 24 26 28 30 31 30 38 42 36 30 26 29 30 26 27 28 24 41 51 56 57 55 58 59 59 59 59 61 63 62 64 65 67 67
36 24 38 40 38 33 29 25 31 26 20 19 18 18 22 24 20 17 19 17 13 12 14 9 8 8 8 10 11 9 12 10 11 9 10 7 8 11 14 13 14 12 11 10 11 24 30 18 17 16 20 16 16 19 24 26 28 29 29 32 30 35 36 42 46 36 32 31 29 28 28 42 52 57 58 58 58 57 58 62 62 62 63 62 63 65 65 65
38 32 35 39 37 32 25 23 22 23 24 23 19 20 19 20 20 18 19 18 14 12 12 12 9 6 10 9 10 12 13 14 12 12 11 11 10 14 15 13 13 12 11 17 21 17 15 27 25 21 19 16 14 20 21 23 26 26 30 40 39 34 36 35 32 37 35 31 27 24 28 45 52 55 56 55 53 54 57 60 63 62 63 62 63 64 65 65
40 33 32 36 37 30 23 23 22 23 27 24 18 21 19 20 20 21 20 17 16 14 14 12 11 7 8 11 12 11 14 11 16 12 10 13 12 16 16 12 16 10 14 26 39 17 16 19 24 19 19 17 13 15 25 28 30 29 30 34 38 34 33 32 31 38 33 38 38 32 32 47 54 56 54 55 55 54 58 60 62 63 62 62 63 63 65 65
41 38 27 29 33 29 28 27 25 29 32 30 25 24 19 17 20 20 21 21 20 18 14 14 11 8 7 9 12 12 13 13 10 18 19 13 10 15 16 15 15 14 41 39 33 23 23 22 25 25 24 18 22 25 21 23 20 18 14 23 33 36 35 33 33 33 35 39 39 46 49 45 48 49 51 51 54 55 56 59 59 60 62 62 64 64 64 65
40 32 30 30 31 28 26 25 25 28 29 30 32 27 22 17 18 21 21 21 21 20 19 17 14 11 11 10 12 12 11 11 15 16 18 15 15 11 17 17 16 23 49 29 31 22 27 21 20 29 28 26 22 25 19 21 19 19 19 21 26 35 36 34 32 32 42 38 34 42 48 47 48 50 54 56 55 57 57 59 60 60 62 63 63 64 65 64
40 38 38 43 40 31 27 24 25 25 25 25 27 29 25 19 19 25 25 23 19 20 17 19 16 13 10 10 15 15 18 19 21 21 15 15 16 14 15 18 18 43 36 19 21 27 24 21 22 24 22 20 18 21 21 23 23 25 25 25 24 26 37 34 34 33 37 35 34 41 48 47 48 53 54 56 56 57 58 59 60 62 62 63 63 64 64 64
36 36 37 39 37 34 32 33 37 30 30 29 31 32 30 27 24 21 24 25 19 20 16 18 16 13 11 10 14 18 28 20 23 23 24 21 18 21 18 18 16 22 21 21 23 32 29 21 23 22 25 22 19 19 22 26 28 27 27 26 26 26 28 29 33 33 38 42 40 39 44 46 49 55 56 56 59 59 60 60 60 61 62 63 63 63 64 64
40 38 41 40 36 33 36 37 38 37 34 39 39 35 31 30 27 24 23 25 24 22 17 16 15 14 13 13 22 16 19 22 22 24 24 23 20 23 22 20 18 22 19 20 20 31 23 26 32 26 27 25 22 21 23 25 29 30 27 24 25 27 28 30 29 32 41 43 40 40 44 45 51 57 57 57 59 58 59 59 61 62 62 63 62 63 63 64
41 43 46 41 39 35 34 31 31 36 36 36 34 32 32 30 28 26 26 26 27 26 20 18 16 17 16 16 16 14 14 21 24 20 20 23 21 22 22 25 18 20 17 20 22 25 24 21 28 28 24 24 22 22 24 26 25 30 30 29 29 28 31 35 40 50 43 44 44 45 43 42 54 59 57 57 58 57 58 59 60 61 62 62 62 62 62 62
47 47 46 42 40 44 37 33 32 30 31 33 33 35 33 29 28 28 30 30 30 27 24 22 20 16 18 18 17 15 14 14 15 18 19 18 17 16 15 17 16 20 20 21 28 24 29 27 25 24 23 25 24 23 24 25 25 23 25 29 37 33 35 37 37 37 38 40 41 39 40 54 56 58 56 56 57 57 58 60 61 62 62 62 62 63 63 63